Location: Roanoke
(37.2710°N, 79.9420°W)
Time: 14:44:15
(UTC-05:00)

Courier 1B Rocket - All Passes

Search period start: 17 November 2019 00:00
Search period end: 27 November 2019 00:00
Orbit: 920 x 1202 km, 28.2° (Epoch: 16 November)

Date Brightness Start Highest point End Pass type
(mag) Time Alt. Az. Time Alt. Az. Time Alt. Az.
17 Nov - 14:57:14 10° SSW 15:02:46 24° SSE 15:08:35 10° ESE daylight
17 Nov - 16:48:55 10° WSW 16:55:43 40° S 17:02:50 10° ESE daylight
17 Nov - 18:41:55 10° WSW 18:48:57 41° S 18:56:10 10° ESE visible
17 Nov - 20:35:53 10° WSW 20:42:03 26° SSW 20:48:14 10° SSE visible
18 Nov - 13:57:26 10° SSW 14:01:55 18° SSE 14:06:35 10° ESE daylight
18 Nov - 15:48:15 10° SW 15:54:41 36° SSE 16:01:27 10° ESE daylight
18 Nov - 17:40:53 10° WSW 17:47:50 43° S 17:55:05 10° ESE visible
18 Nov - 19:34:25 10° WSW 19:41:01 32° SSW 19:47:43 10° SE visible
18 Nov - 21:30:01 10° WSW 21:33:52 14° SSW 21:37:44 10° S visible
19 Nov - 12:58:38 10° S 13:01:09 12° SSE 13:03:43 10° SE daylight
19 Nov - 14:47:48 10° SW 14:53:42 30° SSE 14:59:59 10° ESE daylight
19 Nov - 16:39:58 10° WSW 16:46:44 42° S 16:53:52 10° ESE daylight
19 Nov - 18:33:10 10° WSW 18:39:56 36° SSW 18:46:55 10° SE visible
19 Nov - 20:27:39 10° WSW 20:32:55 20° SSW 20:38:14 10° SSE visible
20 Nov - 13:47:37 10° SSW 13:52:50 23° SSE 13:58:19 10° ESE daylight
20 Nov - 15:39:12 10° WSW 15:45:41 39° S 15:52:34 10° ESE daylight
20 Nov - 17:32:05 10° WSW 17:38:50 40° S 17:45:56 10° ESE visible
20 Nov - 19:25:56 10° WSW 19:31:55 25° SSW 19:38:03 10° SSE visible
21 Nov - 12:47:54 10° SSW 12:52:02 17° SSE 12:56:20 10° ESE daylight
21 Nov - 14:38:36 10° SW 14:44:42 34° SSE 14:51:12 10° ESE daylight
21 Nov - 16:31:08 10° WSW 16:37:46 41° S 16:44:48 10° ESE daylight
21 Nov - 18:24:33 10° WSW 18:30:54 31° SSW 18:37:29 10° SE visible
21 Nov - 20:20:05 10° WSW 20:23:46 14° SSW 20:27:29 10° S visible
22 Nov - 11:49:17 10° SSE 11:51:19 11° SSE 11:53:22 10° SE daylight
22 Nov - 13:38:12 10° SW 13:43:48 29° SSE 13:49:44 10° ESE daylight
22 Nov - 15:30:18 10° WSW 15:36:44 41° S 15:43:36 10° ESE daylight
22 Nov - 17:23:24 10° WSW 17:29:52 35° SSW 17:36:39 10° SE visible
22 Nov - 19:17:48 10° WSW 19:22:49 19° SSW 19:27:58 10° SSE visible
23 Nov - 12:38:05 10° SSW 12:42:59 22° SSE 12:48:07 10° ESE daylight
23 Nov - 14:29:36 10° WSW 14:35:45 38° S 14:42:19 10° ESE daylight
23 Nov - 16:22:23 10° WSW 16:28:49 38° S 16:35:39 10° ESE daylight
23 Nov - 18:16:09 10° WSW 18:21:50 24° SSW 18:27:45 10° SSE visible
24 Nov - 11:38:24 10° SSW 11:42:14 16° SSE 11:46:11 10° ESE daylight
24 Nov - 13:29:03 10° SW 13:34:50 33° SSE 13:41:00 10° ESE daylight
24 Nov - 15:21:31 10° WSW 15:27:49 40° S 15:34:32 10° ESE daylight
24 Nov - 17:14:51 10° WSW 17:20:51 29° SSW 17:27:10 10° SE daylight
24 Nov - 19:10:26 10° SW 19:13:42 13° SSW 19:17:01 10° S visible
25 Nov - 10:39:55 10° SSE 10:41:32 11° SSE 10:43:11 10° SE daylight
25 Nov - 12:28:40 10° SW 12:34:00 28° SSE 12:39:36 10° ESE daylight
25 Nov - 14:20:44 10° WSW 14:26:50 39° S 14:33:22 10° ESE daylight
25 Nov - 16:13:45 10° WSW 16:19:52 34° SSW 16:26:22 10° SE daylight
25 Nov - 18:08:08 10° WSW 18:12:46 18° SSW 18:17:34 10° SSE visible
26 Nov - 11:28:33 10° SSW 11:33:14 22° SSE 11:38:04 10° ESE daylight
26 Nov - 13:20:05 10° WSW 13:25:56 37° S 13:32:09 10° ESE daylight
26 Nov - 15:12:49 10° WSW 15:18:54 37° S 15:25:24 10° ESE daylight
26 Nov - 17:06:31 10° WSW 17:11:50 23° SSW 17:17:24 10° SSE daylight
